Weather Roundup
Issued by NWS

Home | Current Version | Previous Version | Graphics & Text | Print | Product List | Glossary Off
Versions: 1 2 3 4 5 6 7 8 9 10 11 12 13 14 15 16 17 18 19 20 21 22 23 24 25 26 27 28 29 30 31 32 33 34 35 36 37 38 39 40 41 42 43 44 45 46 47 48 49 50

487
NZUS93 KARX 231110
HRRWXR

CURRENT HOURLY OBSERVATIONS ACROSS
MUCH OF THE UPPER MISSISSIPPI VALLEY
NATIONAL WEATHER SERVICE LA CROSSE WI
600 AM CDT SUN JUL 23 2017


...SOUTHEAST MINNESOTA...


CITY           SKY/WX    TMP DP  RH WIND       PRES   REMARKS
ROCHESTER      PTCLDY    64  63  96 NW7       29.86S
ROCHESTER/MAYO FAIR      68  62  82 W5        29.86S
WINONA         CLOUDY    64  63  94 CALM      29.83R FOG
AUSTIN         CLEAR     64  63  94 CALM      29.86S
ALBERT LEA     CLEAR     66  66 100 CALM      29.86F FOG
DODGE CENTER   PTCLDY    66  63  88 NW3       29.86F
PRESTON        MOCLDY    65  62  90 CALM      29.87R
OWATONNA       MOCLDY    64  63  94 CALM      29.87R FOG
FARIBAULT      MOCLDY    66  61  82 N3        29.87R
$$

...ELSEWHERE IN MINNESOTA...


CITY           SKY/WX    TMP DP  RH WIND       PRES   REMARKS
MINNEAPOLIS    MOCLDY    70  55  59 NW9       29.85S
INTNL FALLS    CLOUDY    60  57  89 NE7       29.90R
DULUTH         CLOUDY    54  54 100 E3        29.85R
RED WING       MOCLDY    66  63  88 CALM      29.83S
REDWOOD FALLS  CLEAR     63  59  87 W9        29.91R
MANKATO        CLEAR     65  62  90 N6        29.88R
WORTHINGTON    CLEAR     62  58  86 NW8       29.95R
FAIRMONT       CLEAR     66  63  90 NW9       29.89R
$$

...SOUTHWEST WISCONSIN...


CITY           SKY/WX    TMP DP  RH WIND       PRES   REMARKS
LA CROSSE      FOG       70  68  93 CALM      29.82R VSB 1/4
PRAIRIE DU CHI FOG       68  67  95 CALM      29.81S VSB 1/4
BOSCOBEL       FOG       65  64  97 CALM      29.82S VSB 1/4
LONE ROCK      FOG       67  66  97 W3        29.81R VSB<1/4
PLATTEVILLE    CLOUDY    66  66 100 SW5       29.84S
FORT MC COY    CLOUDY    58  58 100 CALM      29.84R
CAMP DOUGLAS   PTCLDY    61  61 100 W6        29.81S
MAUSTON-NEW LI SUNNY     63  63  99 NW5       29.81R
VIROQUA        FAIR      65  65 100 NW5       29.84R
WIS DELLS      CLEAR     63  62  95 CALM      29.81S
$$

...ELSEWHERE IN WISCONSIN...


CITY           SKY/WX    TMP DP  RH WIND       PRES   REMARKS
MILWAUKEE      CLOUDY    72  70  93 E6        29.80R FOG
MADISON        PTCLDY    66  65  96 CALM      29.79S
GREEN BAY      CLOUDY    67  67 100 S6        29.76S FOG
EAU CLAIRE     CLOUDY    63  62  97 SW6       29.81S
BLACK RVR FLS  FOG       59  59 100 CALM      29.82R VSB 1
MEDFORD        CLOUDY    61  60  97 W3        29.82S
WAUSAU         CLOUDY    64  63  96 NW5       29.79S
WIS RAPIDS     CLEAR     60  60 100 CALM      29.82R FOG
MARSHFIELD     PTCLDY    62  59  90 W5        29.81S
RICE LAKE      MOCLDY    63  56  80 CALM      29.85R
$$

...NORTHEAST IOWA...


CITY           SKY/WX    TMP DP  RH WIND       PRES   REMARKS
WATERLOO       CLEAR     67  66  97 SW6       29.85R FOG
DUBUQUE        FOG       66  66 100 SW5       29.84F VSB<1/4
DECORAH        CLEAR     66  66 100 CALM      29.84R
MASON CITY     CLEAR     71  66  84 W10       29.88R
CHARLES CITY   CLEAR     66  66 100 W6        29.85S
OELWEIN          N/A    N/A N/A N/A MISG        N/A
$$

...ELSEWHERE IN IOWA...


CITY           SKY/WX    TMP DP  RH WIND       PRES   REMARKS
DES MOINES     PTCLDY    73  71  93 W5        29.89F
IOWA CITY      CLEAR     72  70  93 SW5       29.87S
FORT DODGE     CLEAR     66  64  94 W3        29.92R
MARSHALLTOWN   CLEAR     69  69 100 W6        29.88S FOG
CEDAR RAPIDS   CLEAR     67  67 100 SW6       29.85F FOG
$$

...NORTHERN ILLINOIS...


CITY           SKY/WX    TMP DP  RH WIND       PRES   REMARKS
CHICAGO-OHARE  PTCLDY    72  69  90 CALM      29.80R
CHICAGO-MIDWAY PTCLDY    74  70  87 CALM      29.80R
MOLINE         CLOUDY    74  71  91 SW6       29.85R
ROCKFORD       MOCLDY    73  71  93 NW5       29.83R
PEORIA         CLOUDY    76  76 100 W7        29.85R
$$

NOTE: "FAIR" INDICATES FEW OR NO CLOUDS BELOW 12,000 FEET WITH NO
SIGNIFICANT WEATHER AND/OR OBSTRUCTIONS TO VISIBILITY. WIND
SPEEDS ARE IN MILES-PER-HOUR.




USA.gov is the U.S. government's official web portal to all federal, state and local government web resources and services.